TimePST,TemperatureF,Dew PointF,Humidity,Sea Level PressureIn,VisibilityMPH,Wind Direction,Wind SpeedMPH,Gust SpeedMPH,PrecipitationIn,Events,Conditions,WindDirDegrees,DateUTC
12:15 AM,8.6,5.0,85,29.90,5.0,NNW,9.2,-,N/A,Snow,Light Snow,330,2013-12-07 08:15:00
12:35 AM,8.6,5.0,85,29.90,4.0,NW,9.2,-,0.01,Snow,Light Snow,320,2013-12-07 08:35:00
12:55 AM,8.6,5.0,85,29.91,5.0,NNW,9.2,-,0.02,Snow,Light Snow,330,2013-12-07 08:55:00
1:15 AM,8.6,5.0,85,29.91,3.0,NW,6.9,-,N/A,Snow,Light Snow,320,2013-12-07 09:15:00
1:35 AM,8.6,5.0,85,29.91,5.0,NNW,9.2,-,0.01,Snow,Light Snow,340,2013-12-07 09:35:00
1:55 AM,6.8,3.2,85,29.92,4.0,North,10.4,16.1,0.02,Snow,Light Snow,350,2013-12-07 09:55:00
2:15 AM,6.8,3.2,85,29.92,3.0,NNW,12.7,17.3,0.02,Snow,Light Snow,330,2013-12-07 10:15:00
2:35 AM,6.8,1.4,79,29.93,3.0,NNW,11.5,19.6,0.02,Snow,Light Snow,330,2013-12-07 10:35:00
2:55 AM,6.8,1.4,79,29.94,3.0,NNW,11.5,20.7,0.03,Snow,Light Snow,340,2013-12-07 10:55:00
3:15 AM,6.8,1.4,79,29.94,4.0,NNW,12.7,19.6,N/A,Snow,Light Snow,330,2013-12-07 11:15:00
3:35 AM,6.8,1.4,79,29.95,5.0,NNW,13.8,19.6,N/A,Rain,Freezing Rain,330,2013-12-07 11:35:00
3:55 AM,5.0,1.4,85,29.95,2.5,NNW,13.8,20.7,0.01,Snow,Light Snow,340,2013-12-07 11:55:00
4:15 AM,5.0,1.4,85,29.96,3.0,NNW,12.7,-,N/A,Snow,Light Snow,340,2013-12-07 12:15:00
4:35 AM,5.0,-0.4,78,29.96,4.0,NNW,13.8,23.0,N/A,Snow,Light Snow,340,2013-12-07 12:35:00
4:55 AM,5.0,-0.4,78,29.97,4.0,North,12.7,21.9,0.01,Rain,Freezing Rain,350,2013-12-07 12:55:00
5:15 AM,5.0,-0.4,78,29.98,5.0,NNW,13.8,18.4,N/A,Rain,Freezing Rain,340,2013-12-07 13:15:00
5:35 AM,5.0,-0.4,78,29.99,6.0,NNW,13.8,24.2,N/A,Snow,Light Snow,330,2013-12-07 13:35:00
5:55 AM,5.0,-0.4,78,30.00,5.0,NNW,15.0,-,N/A,Rain,Freezing Rain,340,2013-12-07 13:55:00
6:15 AM,3.2,-0.4,85,30.01,4.0,NNW,12.7,17.3,N/A,Snow,Light Snow,340,2013-12-07 14:15:00
6:35 AM,3.2,-0.4,85,30.02,2.5,North,10.4,-,N/A,Snow,Light Snow,350,2013-12-07 14:35:00
6:55 AM,3.2,-0.4,85,30.04,3.0,NNW,9.2,-,0.01,Rain,Freezing Rain,340,2013-12-07 14:55:00
7:15 AM,3.2,-0.4,85,30.05,2.5,NNW,13.8,18.4,N/A,Snow,Light Snow,340,2013-12-07 15:15:00
7:35 AM,3.2,-0.4,85,30.06,1.2,NNW,10.4,16.1,0.01,Snow,Light Snow,330,2013-12-07 15:35:00
7:55 AM,3.2,-0.4,85,30.07,2.0,NNW,11.5,17.3,0.01,Snow,Light Snow,340,2013-12-07 15:55:00
8:15 AM,3.2,-0.4,85,30.08,3.0,NNW,9.2,-,N/A,Rain,Freezing Rain,330,2013-12-07 16:15:00
8:35 AM,1.4,-2.2,85,30.09,3.0,NNW,10.4,-,N/A,Rain,Freezing Rain,330,2013-12-07 16:35:00
8:55 AM,1.4,-2.2,85,30.11,3.0,NW,8.1,-,N/A,Rain,Freezing Rain,320,2013-12-07 16:55:00
9:15 AM,3.2,-2.2,78,30.11,4.0,NNW,12.7,-,N/A,Rain,Freezing Rain,330,2013-12-07 17:15:00
9:35 AM,3.2,-2.2,78,30.12,4.0,NNW,15.0,-,N/A,Rain,Freezing Rain,330,2013-12-07 17:35:00
9:55 AM,3.2,-2.2,78,30.13,5.0,NNW,12.7,16.1,N/A,Rain,Freezing Rain,340,2013-12-07 17:55:00
10:15 AM,5.0,-2.2,72,30.14,9.0,NNW,8.1,16.1,N/A,,Mostly Cloudy,330,2013-12-07 18:15:00
10:35 AM,5.0,-2.2,72,30.15,10.0,NNW,10.4,-,N/A,,Partly Cloudy,330,2013-12-07 18:35:00
10:55 AM,5.0,-2.2,72,30.15,10.0,NNW,9.2,-,N/A,,Partly Cloudy,340,2013-12-07 18:55:00
11:15 AM,5.0,-2.2,72,30.15,10.0,NW,10.4,-,N/A,,Clear,320,2013-12-07 19:15:00
11:35 AM,5.0,-4.0,66,30.14,10.0,NW,12.7,-,N/A,,Partly Cloudy,310,2013-12-07 19:35:00
11:55 AM,5.0,-4.0,66,30.14,10.0,WNW,11.5,16.1,N/A,,Scattered Clouds,300,2013-12-07 19:55:00
12:15 PM,5.0,-4.0,66,30.14,10.0,NW,10.4,-,N/A,,Partly Cloudy,320,2013-12-07 20:15:00
12:35 PM,5.0,-4.0,66,30.14,10.0,North,10.4,-,N/A,,Clear,350,2013-12-07 20:35:00
12:55 PM,5.0,-4.0,66,30.14,10.0,North,6.9,-,N/A,,Clear,350,2013-12-07 20:55:00
1:15 PM,5.0,-4.0,66,30.14,10.0,NNW,9.2,-,N/A,,Clear,330,2013-12-07 21:15:00
1:35 PM,6.8,-4.0,61,30.14,10.0,North,6.9,-,N/A,,Clear,360,2013-12-07 21:35:00
1:55 PM,6.8,-4.0,61,30.14,10.0,NNW,4.6,-,N/A,,Clear,340,2013-12-07 21:55:00
2:15 PM,6.8,-4.0,61,30.15,10.0,North,8.1,-,N/A,,Clear,350,2013-12-07 22:15:00
2:35 PM,5.0,-5.8,61,30.16,10.0,North,6.9,-,N/A,,Clear,350,2013-12-07 22:35:00
2:55 PM,5.0,-4.0,66,30.16,10.0,NNW,4.6,-,N/A,,Clear,340,2013-12-07 22:55:00
3:15 PM,5.0,-5.8,61,30.17,10.0,North,4.6,-,N/A,,Clear,350,2013-12-07 23:15:00
3:35 PM,5.0,-4.0,66,30.18,10.0,NNW,3.5,-,N/A,,Clear,340,2013-12-07 23:35:00
3:55 PM,5.0,-4.0,66,30.18,10.0,Calm,Calm,-,N/A,,Clear,0,2013-12-07 23:55:00
4:15 PM,3.2,-4.0,72,30.19,10.0,Calm,Calm,-,N/A,,Clear,0,2013-12-08 00:15:00
4:35 PM,-0.4,-5.8,78,30.19,10.0,Calm,Calm,-,N/A,,Clear,0,2013-12-08 00:35:00
4:55 PM,-2.2,-7.6,78,30.20,10.0,Calm,Calm,-,N/A,,Clear,0,2013-12-08 00:55:00
5:15 PM,-4.0,-9.4,78,30.20,10.0,Calm,Calm,-,N/A,,Clear,0,2013-12-08 01:15:00
5:35 PM,-7.6,-13.0,77,30.20,10.0,Calm,Calm,-,N/A,,Clear,0,2013-12-08 01:35:00
5:55 PM,-7.6,-11.2,84,30.20,10.0,Calm,Calm,-,N/A,,Clear,0,2013-12-08 01:55:00
6:15 PM,-9.4,-13.0,84,30.21,10.0,Calm,Calm,-,N/A,,Clear,0,2013-12-08 02:15:00
6:35 PM,-9.4,-13.0,84,30.22,10.0,Calm,Calm,-,N/A,,Clear,0,2013-12-08 02:35:00
6:55 PM,-9.4,-14.8,77,30.22,8.0,Calm,Calm,-,N/A,,Clear,0,2013-12-08 02:55:00
7:15 PM,-9.4,-14.8,77,30.22,10.0,Calm,Calm,-,N/A,,Clear,0,2013-12-08 03:15:00
7:35 PM,-11.2,-16.6,77,30.22,10.0,Calm,Calm,-,N/A,,Clear,0,2013-12-08 03:35:00
7:55 PM,-9.4,-14.8,77,30.21,10.0,Calm,Calm,-,N/A,,Clear,0,2013-12-08 03:55:00
8:15 PM,-7.6,-13.0,77,30.22,10.0,SSW,5.8,-,N/A,,Clear,200,2013-12-08 04:15:00
8:35 PM,-7.6,-13.0,77,30.22,10.0,South,4.6,-,N/A,,Clear,190,2013-12-08 04:35:00
8:55 PM,-7.6,-13.0,77,30.22,10.0,SSW,5.8,-,N/A,,Clear,200,2013-12-08 04:55:00
9:15 PM,-7.6,-13.0,77,30.21,10.0,South,4.6,-,N/A,,Clear,190,2013-12-08 05:15:00
9:35 PM,-14.8,-20.2,77,30.22,10.0,SSW,5.8,-,N/A,,Clear,200,2013-12-08 05:35:00
9:55 PM,-13.0,-20.2,70,30.22,10.0,South,3.5,-,N/A,,Clear,180,2013-12-08 05:55:00
10:15 PM,-16.6,-22.0,76,30.23,10.0,South,5.8,-,N/A,,Clear,180,2013-12-08 06:15:00
10:35 PM,-16.6,-22.0,76,30.23,10.0,South,5.8,-,N/A,,Clear,190,2013-12-08 06:35:00
10:55 PM,-13.0,-18.4,77,30.23,10.0,South,4.6,-,N/A,,Clear,180,2013-12-08 06:55:00
11:15 PM,-18.4,-23.8,76,30.23,10.0,South,4.6,-,N/A,,Clear,180,2013-12-08 07:15:00
11:35 PM,-20.2,-25.6,76,30.23,10.0,SSE,4.6,-,N/A,,Clear,160,2013-12-08 07:35:00
11:55 PM,-20.2,-25.6,76,30.23,10.0,South,3.5,-,N/A,,Clear,180,2013-12-08 07:55:00